Weather History for Mandan, ND

Change the Weather History Date:

Friday, March 22, 2013

  Actual Average (KBIS) Record (KBIS)
Temperature  
Mean Temperature 19 °F 33 °F  
Max Temperature 26 °F 44 °F 81 °F (1910)
Min Temperature 12 °F 22 °F -18 °F (1899)
Degree Days  
Heating Degree Days 46 32  
Month to date heating degree days 818  
Since 1 July heating degree days 7249  
Cooling Degree Days 0 0  
Month to date cooling degree days 0  
Year to date cooling degree days 0  
Moisture  
Dew Point 16 °F    
Average Humidity 93    
Maximum Humidity 100    
Minimum Humidity 73    
Precipitation  
Precipitation 0.71 in 0.03 in 0.97 in (1931)
Month to date precipitation 0.58  
Year to date precipitation 1.52  
Snow  
Snow 0.00 in 0.30 in 8.00 in (1893)
Month to date snowfall 6.8  
Since 1 July snowfall 44.3  
Snow Depth -    
Sea Level Pressure  
Sea Level Pressure 29.98 in    
Wind  
Wind Speed 10 mph (East)    
Max Wind Speed 14 mph    
Max Gust Speed -    
Visibility 7 miles    
Events Rain , Snow    
T = Trace of Precipitation, MM = Missing Value Source: NWS Daily Summary

Daily Weather History Graph

Daily Weather History Graph

Search for Another Location

Airport:

Trip Planner

Search our weather history database for the weather conditions in past years. The results will help you decide how hot, cold, wet, or windy it might be!

Date:

Astronomy

Mar. 22, 2013 Rise Set
Actual Time 7:42 AM CDT 7:59 PM CDT
Civil Twilight 7:11 AM CDT 8:29 PM CDT
Nautical Twilight 6:36 AM CDT 9:05 PM CDT
Astronomical Twilight 5:59 AM CDT 9:42 PM CDT
Moon 3:13 PM CDT (3/22) 4:59 AM CDT (3/22)
Length of Visible Light 13h 17m
Length of Day
12h 17m
Waxing Gibbous, 77% of the Moon is Illuminated
Mar 22
Waxing Gibbous
Mar 27
Full
Apr 2
Last Quarter
Apr 10
New
Apr 18
First Quarter

Hourly Weather History & Observations

Time (CDT) Temp. Windchill Dew Point Humidity Pressure Visibility Wind Dir Wind Speed Gust Speed Precip Events Conditions
12:15 AM 15.8 °F 4.2 °F 10.4 °F 79% 30.00 in 10.0 mi ESE 9.2 mph - N/A   Overcast
12:35 AM 15.8 °F 5.1 °F 8.6 °F 73% 30.00 in 10.0 mi ESE 8.1 mph - N/A   Overcast
12:55 AM 14.0 °F 1.2 °F 10.4 °F 86% 30.00 in 10.0 mi East 10.4 mph - N/A   Overcast
1:15 AM 14.0 °F 1.2 °F 10.4 °F 86% 30.00 in 10.0 mi East 10.4 mph - N/A   Overcast
1:35 AM 14.0 °F 1.2 °F 10.4 °F 86% 29.99 in 10.0 mi East 10.4 mph - N/A   Overcast
1:55 AM 14.0 °F 2.0 °F 10.4 °F 86% 29.99 in 10.0 mi East 9.2 mph - N/A   Overcast
2:15 AM 14.0 °F 0.5 °F 10.4 °F 86% 29.99 in 10.0 mi East 11.5 mph - N/A   Overcast
2:35 AM 14.0 °F 2.0 °F 10.4 °F 86% 29.99 in 10.0 mi East 9.2 mph - N/A   Overcast
2:55 AM 14.0 °F 2.9 °F 10.4 °F 86% 29.99 in 10.0 mi East 8.1 mph - N/A   Overcast
3:15 AM 14.0 °F 2.0 °F 10.4 °F 86% 29.99 in 10.0 mi East 9.2 mph - N/A   Overcast
3:35 AM 14.0 °F 2.0 °F 10.4 °F 86% 29.99 in 10.0 mi East 9.2 mph - N/A   Overcast
3:55 AM 14.0 °F 1.2 °F 10.4 °F 86% 29.98 in 10.0 mi East 10.4 mph - N/A   Overcast
4:15 AM 14.0 °F 1.2 °F 10.4 °F 86% 29.97 in 10.0 mi East 10.4 mph - N/A   Overcast
4:35 AM 12.2 °F -1.0 °F 8.6 °F 85% 29.97 in 10.0 mi East 10.4 mph - N/A   Overcast
4:55 AM 14.0 °F 1.2 °F 8.6 °F 79% 29.97 in 10.0 mi East 10.4 mph - N/A   Overcast
5:15 AM 14.0 °F -0.2 °F 8.6 °F 79% 29.97 in 10.0 mi East 12.7 mph - N/A   Overcast
5:35 AM 14.0 °F 1.2 °F 8.6 °F 79% 29.96 in 10.0 mi East 10.4 mph - N/A   Overcast
5:55 AM 14.0 °F 1.2 °F 10.4 °F 86% 29.96 in 10.0 mi East 10.4 mph - N/A   Overcast
6:15 AM 14.0 °F 1.2 °F 10.4 °F 86% 29.96 in 10.0 mi East 10.4 mph - N/A Snow Light Snow
6:35 AM 14.0 °F 2.0 °F 10.4 °F 86% 29.96 in 10.0 mi East 9.2 mph - N/A Snow Light Snow
6:55 AM 14.0 °F -0.2 °F 10.4 °F 86% 29.96 in 10.0 mi ESE 12.7 mph - N/A   Overcast
7:15 AM 14.0 °F -0.8 °F 8.6 °F 79% 29.96 in 9.0 mi ESE 13.8 mph - N/A Snow Light Snow
7:35 AM 14.0 °F -0.2 °F 10.4 °F 86% 29.96 in 3.0 mi ESE 12.7 mph - 0.01 in Snow Light Snow
7:55 AM 14.0 °F -0.2 °F 12.2 °F 93% 29.96 in 2.5 mi ESE 12.7 mph - 0.03 in Snow Light Snow
8:15 AM 14.0 °F -0.2 °F 12.2 °F 93% 29.96 in 2.0 mi ESE 12.7 mph - N/A Snow Light Snow
8:35 AM 14.0 °F -0.2 °F 12.2 °F 93% 29.96 in 1.8 mi East 12.7 mph - 0.01 in Snow Light Snow
8:55 AM 14.0 °F 1.2 °F 14.0 °F 100% 29.96 in 2.0 mi East 10.4 mph - 0.02 in Snow Light Snow
9:15 AM 14.0 °F -0.2 °F 14.0 °F 100% 29.95 in 1.5 mi East 12.7 mph - 0.02 in Snow Light Snow
9:35 AM 14.0 °F 2.0 °F 14.0 °F 100% 29.96 in 1.5 mi East 9.2 mph - 0.07 in Snow Light Snow
9:55 AM 14.0 °F 1.2 °F 14.0 °F 100% 29.96 in 1.5 mi East 10.4 mph - 0.13 in Snow Light Snow
10:15 AM 14.0 °F 2.0 °F 14.0 °F 100% 29.96 in 1.0 mi East 9.2 mph - 0.06 in Snow Light Snow
10:35 AM 14.0 °F 2.0 °F 14.0 °F 100% 29.96 in 1.2 mi East 9.2 mph - 0.13 in Snow Light Snow
10:55 AM 14.0 °F 1.2 °F 14.0 °F 100% 29.95 in 1.5 mi East 10.4 mph - 0.18 in Snow Light Snow
11:15 AM 15.8 °F 4.2 °F 14.0 °F 93% 29.96 in 1.5 mi East 9.2 mph - 0.03 in Snow Light Snow
11:35 AM 15.8 °F 5.1 °F 14.0 °F 93% 29.96 in 1.8 mi East 8.1 mph - 0.05 in Snow Light Snow
11:55 AM 15.8 °F 4.2 °F 15.8 °F 100% 29.96 in 2.0 mi East 9.2 mph - 0.08 in Snow Light Snow
12:15 PM 17.6 °F 5.7 °F 15.8 °F 93% 29.96 in 2.0 mi East 10.4 mph - 0.01 in Snow Light Snow
12:35 PM 17.6 °F 5.0 °F 15.8 °F 93% 29.96 in 2.0 mi ESE 11.5 mph - 0.02 in Snow Light Snow
12:55 PM 19.4 °F 9.5 °F 17.6 °F 93% 29.96 in 2.0 mi East 8.1 mph - 0.04 in Snow Light Snow
1:15 PM 21.2 °F 10.1 °F 17.6 °F 86% 29.96 in 2.5 mi ESE 10.4 mph - 0.01 in Snow Light Snow
1:35 PM 21.2 °F 10.1 °F 19.4 °F 93% 29.96 in 1.8 mi ESE 10.4 mph - 0.02 in Snow Light Snow
1:55 PM 23.0 °F 12.4 °F 19.4 °F 86% 29.96 in 6.0 mi East 10.4 mph - 0.02 in Snow Light Snow
2:15 PM 23.0 °F 13.1 °F 19.4 °F 86% 29.96 in 5.0 mi ESE 9.2 mph - N/A Snow Light Snow
2:35 PM 23.0 °F 13.1 °F 21.2 °F 93% 29.96 in 2.0 mi ESE 9.2 mph - 0.03 in Snow Light Snow
2:55 PM 23.0 °F 13.1 °F 23.0 °F 100% 29.96 in 3.0 mi ESE 9.2 mph - 0.05 in Snow Light Snow
3:15 PM 24.8 °F 15.3 °F 23.0 °F 93% 29.95 in 2.5 mi ESE 9.2 mph - 0.01 in Snow Light Snow
3:35 PM 24.8 °F 16.1 °F 24.8 °F 100% 29.96 in 1.8 mi ESE 8.1 mph - 0.04 in Snow Light Snow
3:55 PM 24.8 °F 16.9 °F 24.8 °F 100% 29.96 in 1.8 mi ESE 6.9 mph - 0.08 in Snow Light Snow
4:15 PM 26.6 °F 18.2 °F 26.6 °F 100% 29.96 in 1.8 mi SE 8.1 mph - 0.03 in Snow Light Snow
4:35 PM 26.6 °F 18.2 °F 24.8 °F 93% 29.96 in 2.0 mi SE 8.1 mph - 0.07 in Snow Light Snow
4:55 PM 26.6 °F 17.5 °F 26.6 °F 100% 29.97 in 5.0 mi SE 9.2 mph - 0.08 in Snow Light Snow
5:15 PM 26.6 °F 18.2 °F 24.8 °F 93% 29.97 in 8.0 mi ESE 8.1 mph - N/A Snow Light Snow
5:35 PM 26.6 °F 17.5 °F 24.8 °F 93% 29.98 in 10.0 mi SE 9.2 mph - N/A   Overcast
5:55 PM 26.6 °F 18.2 °F 24.8 °F 93% 29.98 in 10.0 mi SSE 8.1 mph - N/A   Overcast
6:15 PM 26.6 °F 18.2 °F 23.0 °F 86% 29.98 in 10.0 mi SSE 8.1 mph - N/A   Overcast
6:35 PM 24.8 °F 19.1 °F 24.8 °F 100% 29.99 in 10.0 mi East 4.6 mph - N/A   Overcast
6:55 PM 24.8 °F 16.9 °F 24.8 °F 100% 29.99 in 10.0 mi ENE 6.9 mph - N/A   Overcast
7:15 PM 24.8 °F 16.1 °F 24.8 °F 100% 30.00 in 9.0 mi ENE 8.1 mph - N/A Rain Light Freezing Rain
7:35 PM 23.0 °F 12.4 °F 23.0 °F 100% 30.00 in 8.0 mi East 10.4 mph - N/A Snow Light Snow
7:55 PM 23.0 °F 13.9 °F 23.0 °F 100% 30.01 in 9.0 mi ENE 8.1 mph - N/A Rain Light Freezing Rain
8:15 PM 23.0 °F 13.1 °F 23.0 °F 100% 30.01 in 10.0 mi ENE 9.2 mph - N/A Rain Light Freezing Rain
8:35 PM 23.0 °F 13.1 °F 23.0 °F 100% 30.02 in 10.0 mi ENE 9.2 mph - N/A   Overcast
8:55 PM 21.2 °F 12.6 °F 21.2 °F 100% 30.03 in 10.0 mi ENE 6.9 mph - N/A Rain Light Freezing Rain
9:15 PM 21.2 °F 12.6 °F 21.2 °F 100% 30.03 in 10.0 mi ENE 6.9 mph - N/A Rain Light Freezing Rain
9:35 PM 19.4 °F 8.6 °F 19.4 °F 100% 30.04 in 10.0 mi ENE 9.2 mph - N/A Rain Light Freezing Rain
9:55 PM 19.4 °F 9.5 °F 19.4 °F 100% 30.05 in 10.0 mi ENE 8.1 mph - N/A Rain Light Freezing Rain
10:15 PM 19.4 °F 9.5 °F 19.4 °F 100% 30.05 in 10.0 mi ENE 8.1 mph - N/A Rain Light Freezing Rain
10:35 PM 19.4 °F 8.6 °F 19.4 °F 100% 30.06 in 10.0 mi ENE 9.2 mph - N/A Rain Light Freezing Rain
10:55 PM 19.4 °F 8.6 °F 19.4 °F 100% 30.06 in 10.0 mi ENE 9.2 mph - N/A Snow Light Snow
11:15 PM 19.4 °F 9.5 °F 19.4 °F 100% 30.07 in 10.0 mi ENE 8.1 mph - N/A Snow Light Snow
11:35 PM 19.4 °F 9.5 °F 19.4 °F 100% 30.07 in 10.0 mi ENE 8.1 mph - N/A Snow Light Snow
11:55 PM 19.4 °F 10.4 °F 19.4 °F 100% 30.07 in 10.0 mi East 6.9 mph - N/A   Overcast